User: anonymous   Login
Location: Caltech
(34.1382°N, 118.1253°W)
Time: 18:08:12
(UTC-08:00)
Language:

Oscar 19 - Orbit

View from above orbital plane
View from above orbital plane
View from above satellite
View from above satellite

Ground track
Ground track

The orbit data is extracted from the following two-line orbital elements,

1 20442U 90005G   18053.06480662  .00000004  00000-0  17723-4 0  9993
2 20442  98.6006 352.3289 0012633 126.6503 233.5844 14.32887132467402
Epoch (UTC): 22 February 2018 01:33:19
Eccentricity: 0.0012633
inclination: 98.6006°
perigee height: 773 km
apogee height: 791 km
right ascension of ascending node: 352.3289°
argument of perigee: 126.6503°
revolutions per day: 14.32887132
mean anomaly at epoch: 233.5844°
orbit number at epoch: 46740

The dashed part of the orbit path shows where the satellite is in the earth's shadow,  

DLR